Regional Weather Roundup
Issued by NWS Northern Indiana

Home | Current Version | Previous Version | Text Only | Print | Product List | Glossary Off
Versions: 1 2 3 4 5 6 7 8 9 10 11 12 13 14 15 16 17 18 19 20 21 22 23 24 25 26 27 28 29 30 31 32 33 34 35 36 37 38 39 40 41 42 43 44 45 46 47 48 49 50

000
ASUS43 KIWX 271910
RWRIWX

KIWX WEATHER ROUNDUP
NATIONAL WEATHER SERVICE NORTHERN INDIANA
300 PM EDT WED AUG 27 2014

NOTE: "FAIR" INDICATES FEW OR NO CLOUDS BELOW 12,000 FEET WITH NO
SIGNIFICANT WEATHER AND/OR OBSTRUCTIONS TO VISIBILITY.

* THESE STATIONS ARE NOT UNDER NWS QUALITY CONTROL. THEY ALSO MAY NOT
  REPORT WEATHER SUCH AS PRECIPITATION OR FOG.

INZ001>027-272000-
NORTHERN INDIANA

CITY           SKY/WX    TMP DP  RH WIND       PRES   REMARKS
GARY*          MOSUNNY   77  64  65 N10       30.15S
VALPARAISO     MOSUNNY   78  64  61 NW8       30.14S
MICHIGAN CITY* MOSUNNY   73  61  64 NE10      30.15S
LAPORTE*       MOSUNNY   77  64  63 N10       30.14F
KNOX*          MOSUNNY   78  61  54 N7        30.12S
SOUTH BEND     MOSUNNY   80  60  50 N8        30.14S
ELKHART*       SUNNY     81  59  47 N5        30.14R
GOSHEN         MOSUNNY   80  60  50 VRB5      30.12S
MONTICELLO*    PTSUNNY   80  69  68 W7        30.11S
LOGANSPORT*    MOSUNNY   81  66  61 NW6       30.12S
ROCHESTER*     MOSUNNY   82  63  51 N3        30.12F
WARSAW*        MOSUNNY   79  59  50 NE5       30.12S
ANGOLA*        SUNNY     82  61  47 NW7       30.11S
FORT WAYNE     PTSUNNY   82  63  52 W8        30.11S
HUNTINGTON*    SUNNY     80  65  60 N3        30.10S
PERU/GRISSOM   MOSUNNY   82  72  71 VRB3      30.11S
MARION*        MOSUNNY   82  67  60 N5        30.11S

$$
INZ028>050-272000-
CENTRAL INDIANA

CITY           SKY/WX    TMP DP  RH WIND       PRES   REMARKS
LAFAYETTE      PTSUNNY   82  70  66 N6        30.10S
KOKOMO*        MOSUNNY   84  70  61 NW7       30.10S
MUNCIE*        PTSUNNY   83  70  64 NW6       30.10S
INDIANAPOLIS   MOSUNNY   87  70  56 W5        30.08F

$$
MIZ043>046-050>051-056>058-064>065-071>073-077>080-272000-
SOUTHWEST LOWER MICHIGAN

CITY           SKY/WX    TMP DP  RH WIND       PRES   REMARKS
BATTLE CREEK   MOSUNNY   77  59  53 VRB6      30.14F
BENTON HARBOR  SUNNY     74  59  59 NW9       30.15S
COLDWATER*     SUNNY     80  61  51 NW9       30.12F
HILLSDALE*     SUNNY     78  60  52 NW5       30.12F
HOLLAND        PTSUNNY   76  60  57 NW9       30.15F
GRAND RAPIDS   PTSUNNY   77  62  59 NW8       30.14F
KALAMAZOO      SUNNY     79  57  46 N14       30.14S
STURGIS*       SUNNY     77  61  57 N5        30.12S
THREE RIVERS*  FAIR      79  61  53 N7        30.13S

$$
OHZ001>008-015>018-024>025-272000-
NORTHWEST OHIO

CITY           SKY/WX    TMP DP  RH WIND       PRES   REMARKS
WAUSEON*       FAIR      82  63  51 VRB5      30.10S
DEFIANCE       SUNNY     82  64  54 VRB5      30.10S
FINDLAY        MOSUNNY   83  66  56 CALM      30.08S
TOLEDO EXPRESS MOSUNNY   82  61  48 N7        30.09S
TOLEDO METCALF MOSUNNY   80  63  55 VRB3      30.09F
LIMA           MOSUNNY   82  70  66 NW7       30.09F

$$
&&



USA.gov is the U.S. government's official web portal to all federal, state and local government web resources and services.